Weather in Ozernyy

Russia / Smolensk Oblast     55°34′42″N   32°24′36″E
temp.,
°C
wind,
m/s
gust,
m/s
humid.,
%
clouds,
%
prec.,
mm/h
press.,
hPa
HPBL,
m
17 september, fri
fri1700:00+3se2277100 0.0 102145
03:00+3ese2375100 0.0 102177
06:00+3e2378100 0.0 102086
09:00+6e2567100 0.0 1019343
12:00+10e454988 0.0 10181208
15:00+12e454496 0.0 10181521
18:00+9e4756100 0.0 1019925
21:00+5e4126642 0.0 1020543
18 september, sat
sat1800:00+4e41371100 0.0 1021592
03:00+3e4147686 0.0 1021651
06:00+2e5147544 0.0 1021626
09:00+6e6136298 0.0 1021903
12:00+10e7114562 0.0 10201237
15:00+12e61142100 0.0 10191463
18:00+10e61250100 0.0 10181347
21:00+8e61355100 0.0 10181145
19 september, sun
sun1900:00+7e61463100 0.0 10181103
03:00+5e61581100 0.6 1017879
06:00+4e71692100 2.6 1016761
09:00+4e71794100 5.4 1016850
12:00+4ene71595100 4.0 1016909
15:00+4ene71596100 8.6 1016927
18:00+3ene61498100 4.1 10161011
21:00+3ene61597100 7.3 1016982
20 september, mon
mon2000:00+3ene61498100 1.3 1015918
03:00+3ene61498100 1.8 1015798
06:00+3ene61497100 1.0 1015813
09:00+4ene61497100 1.9 1015893
12:00+4ene61496100 0.4 1016876
15:00+3ene61498100 1.1 1016848
18:00+4ene61397100 2.9 1016892
21:00+3ene51397100 4.9 1016806
21 september, tue
tue2100:00+3ene51298100 1.8 1016740
03:00+3ne41198100 3.0 1015663
06:00+3ne41098100 1.1 1014600
09:00+3ne3998100 2.5 1013523
12:00+4ne3898100 0.5 1012525
15:00+4nne3798100 3.6 1012444
18:00+4nne2699100 1.0 1011415
21:00+5ne1499100 1.6 1011212